Weather History for Blackwell, OK

Change the Weather History Date:

Friday, May 24, 2013

  Actual Average (KPNC) Record (KPNC)
Temperature  
Mean Temperature 66 °F -  
Max Temperature 77 °F 80 °F 93 °F (1953)
Min Temperature 55 °F 57 °F 45 °F (2001)
Cooling Degree Days 1    
Growing Degree Days 16 (Base 50)    
Moisture  
Dew Point 67 °F    
Average Humidity 100    
Maximum Humidity 100    
Minimum Humidity 100    
Precipitation  
Precipitation 0.00 in - - ()
Sea Level Pressure  
Sea Level Pressure 30.13 in    
Wind  
Wind Speed 9 mph (ESE)    
Max Wind Speed 17 mph    
Max Gust Speed 23 mph    
Visibility 10 miles    
Events      
Averages and records for this station are not official NWS values.
T = Trace of Precipitation, MM = Missing Value Source: NWS Daily Summary

Daily Weather History Graph

Daily Weather History Graph

Search for Another Location

Airport:

Trip Planner

Search our weather history database for the weather conditions in past years. The results will help you decide how hot, cold, wet, or windy it might be!

Date:

Astronomy

May. 24, 2013 Rise Set
Actual Time 6:15 AM CDT 8:37 PM CDT
Civil Twilight 5:45 AM CDT 9:07 PM CDT
Nautical Twilight 5:09 AM CDT 9:43 PM CDT
Astronomical Twilight 4:29 AM CDT 10:23 PM CDT
Moon 8:21 PM CDT (5/24) 5:47 AM CDT (5/24)
Length of Visible Light 15h 21m
Length of Day
14h 21m
Full, 100% of the Moon is Illuminated
May 24
Full
May 24
Full
May 31
Last Quarter
Jun 8
New
Jun 16
First Quarter

Hourly Weather History & Observations

Time (CDT) Temp. Dew Point Humidity Pressure Visibility Wind Dir Wind Speed Gust Speed Precip Events Conditions
12:15 AM 55.4 °F 55.4 °F 100% 30.15 in 10.0 mi ENE 3.5 mph - N/A   Clear
12:35 AM 55.4 °F 55.4 °F 100% 30.15 in 8.0 mi ENE 4.6 mph - N/A   Clear
12:55 AM 55.4 °F 55.4 °F 100% 30.15 in 10.0 mi ENE 4.6 mph - N/A   Clear
1:15 AM 55.4 °F 55.4 °F 100% 30.15 in 10.0 mi ENE 4.6 mph - N/A   Clear
1:35 AM 55.4 °F 55.4 °F 100% 30.15 in 10.0 mi NE 5.8 mph - N/A   Partly Cloudy
1:55 AM 55.4 °F 55.4 °F 100% 30.15 in 10.0 mi NE 6.9 mph - N/A   Partly Cloudy
2:15 AM 55.4 °F 55.4 °F 100% 30.16 in 10.0 mi ENE 6.9 mph - N/A   Mostly Cloudy
2:35 AM 57.2 °F 57.2 °F 100% 30.15 in 10.0 mi ENE 8.1 mph - N/A   Overcast
2:55 AM 57.2 °F 57.2 °F 100% 30.15 in 10.0 mi ENE 9.2 mph - N/A   Overcast
3:15 AM 57.2 °F 57.2 °F 100% 30.15 in 10.0 mi ENE 9.2 mph - N/A   Overcast
3:35 AM 57.2 °F 57.2 °F 100% 30.16 in 10.0 mi ENE 8.1 mph - N/A   Overcast
3:55 AM 57.2 °F 57.2 °F 100% 30.16 in 10.0 mi ENE 9.2 mph - N/A   Overcast
4:15 AM 57.2 °F 57.2 °F 100% 30.16 in 10.0 mi ENE 10.4 mph - N/A   Overcast
4:35 AM 57.2 °F 57.2 °F 100% 30.16 in 10.0 mi ENE 10.4 mph 19.6 mph N/A   Mostly Cloudy
4:55 AM 57.2 °F 57.2 °F 100% 30.17 in 10.0 mi ENE 9.2 mph - N/A   Overcast
5:15 AM 57.2 °F 57.2 °F 100% 30.16 in 10.0 mi ENE 9.2 mph - N/A   Overcast
5:35 AM 57.2 °F 57.2 °F 100% 30.16 in 10.0 mi East 10.4 mph - N/A   Overcast
5:55 AM 57.2 °F 57.2 °F 100% 30.15 in 10.0 mi ENE 11.5 mph - N/A   Mostly Cloudy
6:15 AM 57.2 °F 57.2 °F 100% 30.15 in 10.0 mi East 11.5 mph 17.3 mph N/A   Partly Cloudy
6:35 AM 57.2 °F 57.2 °F 100% 30.16 in 10.0 mi East 12.7 mph - N/A   Partly Cloudy
6:55 AM 57.2 °F 57.2 °F 100% 30.16 in 10.0 mi East 11.5 mph 18.4 mph N/A   Mostly Cloudy
7:15 AM 57.2 °F 57.2 °F 100% 30.16 in 10.0 mi East 11.5 mph - N/A   Partly Cloudy
7:35 AM 57.2 °F 57.2 °F 100% 30.16 in 10.0 mi East 12.7 mph 20.7 mph N/A   Clear
7:55 AM 59.0 °F 59.0 °F 100% 30.17 in 10.0 mi East 11.5 mph 16.1 mph N/A   Clear
8:15 AM 59.0 °F 59.0 °F 100% 30.18 in 10.0 mi ESE 12.7 mph 17.3 mph N/A   Clear
8:35 AM 62.6 °F 62.6 °F 100% 30.18 in 10.0 mi ESE 12.7 mph 16.1 mph N/A   Clear
8:55 AM 62.6 °F 62.6 °F 100% 30.18 in 10.0 mi East 16.1 mph 20.7 mph N/A   Clear
9:15 AM 64.4 °F 64.4 °F 100% 30.18 in 10.0 mi ESE 13.8 mph 19.6 mph N/A   Clear
9:35 AM 64.4 °F 64.4 °F 100% 30.19 in 10.0 mi SE 13.8 mph 19.6 mph N/A   Mostly Cloudy
9:55 AM 66.2 °F 66.2 °F 100% 30.19 in 10.0 mi ESE 13.8 mph - N/A   Mostly Cloudy
10:15 AM 66.2 °F 66.2 °F 100% 30.18 in 10.0 mi ESE 15.0 mph 20.7 mph N/A   Scattered Clouds
10:35 AM 66.2 °F 66.2 °F 100% 30.18 in 10.0 mi SE 13.8 mph 17.3 mph N/A   Overcast
10:55 AM 68.0 °F 68.0 °F 100% 30.18 in 10.0 mi SE 13.8 mph - N/A   Mostly Cloudy
11:15 AM 68.0 °F 68.0 °F 100% 30.18 in 10.0 mi SE 11.5 mph - N/A   Mostly Cloudy
11:35 AM 68.0 °F 68.0 °F 100% 30.18 in 10.0 mi ESE 10.4 mph 16.1 mph N/A   Mostly Cloudy
11:55 AM 69.8 °F 69.8 °F 100% 30.18 in 10.0 mi ESE 10.4 mph - N/A   Mostly Cloudy
12:15 PM 71.6 °F 71.6 °F 100% 30.18 in 10.0 mi ESE 9.2 mph - N/A   Mostly Cloudy
12:35 PM 71.6 °F 71.6 °F 100% 30.17 in 10.0 mi ESE 12.7 mph 17.3 mph N/A   Mostly Cloudy
12:55 PM 73.4 °F 73.4 °F 100% 30.17 in 10.0 mi SE 9.2 mph - N/A   Mostly Cloudy
1:15 PM 75.2 °F 75.2 °F 100% 30.17 in 10.0 mi SE 8.1 mph 18.4 mph N/A   Mostly Cloudy
1:35 PM 75.2 °F 75.2 °F 100% 30.16 in 10.0 mi ESE 11.5 mph - N/A   Mostly Cloudy
1:55 PM 75.2 °F 75.2 °F 100% 30.15 in 10.0 mi SE 16.1 mph - N/A   Mostly Cloudy
2:15 PM 75.2 °F 75.2 °F 100% 30.15 in 10.0 mi ESE 12.7 mph 19.6 mph N/A   Mostly Cloudy
2:35 PM 77.0 °F 77.0 °F 100% 30.15 in 10.0 mi ESE 12.7 mph 18.4 mph N/A   Mostly Cloudy
2:55 PM 75.2 °F 75.2 °F 100% 30.14 in 10.0 mi ESE 11.5 mph - N/A   Overcast
3:15 PM 75.2 °F 75.2 °F 100% 30.13 in 10.0 mi ESE 11.5 mph - N/A   Overcast
3:35 PM 75.2 °F 75.2 °F 100% 30.13 in 10.0 mi ESE 11.5 mph - N/A   Overcast
3:55 PM 75.2 °F 75.2 °F 100% 30.12 in 10.0 mi ESE 9.2 mph - N/A   Overcast
4:15 PM 77.0 °F 77.0 °F 100% 30.11 in 10.0 mi SE 16.1 mph 23.0 mph N/A   Mostly Cloudy
4:35 PM 77.0 °F 77.0 °F 100% 30.10 in 10.0 mi ESE 17.3 mph 21.9 mph N/A   Scattered Clouds
4:55 PM 77.0 °F 77.0 °F 100% 30.09 in 10.0 mi SE 12.7 mph 21.9 mph N/A   Scattered Clouds
5:15 PM 77.0 °F 77.0 °F 100% 30.09 in 10.0 mi SE 12.7 mph - N/A   Mostly Cloudy
5:35 PM 77.0 °F 77.0 °F 100% 30.09 in 10.0 mi SE 10.4 mph - N/A   Mostly Cloudy
5:55 PM 77.0 °F 77.0 °F 100% 30.08 in 10.0 mi SE 16.1 mph 19.6 mph N/A   Mostly Cloudy
6:15 PM 77.0 °F 77.0 °F 100% 30.08 in 10.0 mi SE 12.7 mph 18.4 mph N/A   Mostly Cloudy
6:35 PM 77.0 °F 77.0 °F 100% 30.07 in 10.0 mi SE 12.7 mph 21.9 mph N/A   Scattered Clouds
6:55 PM 75.2 °F 75.2 °F 100% 30.06 in 10.0 mi ESE 12.7 mph 17.3 mph N/A   Partly Cloudy
7:15 PM 75.2 °F 75.2 °F 100% 30.06 in 10.0 mi SE 13.8 mph 18.4 mph N/A   Clear
7:35 PM 75.2 °F 75.2 °F 100% 30.06 in 10.0 mi SE 10.4 mph - N/A   Clear
7:55 PM 73.4 °F 73.4 °F 100% 30.06 in 10.0 mi ESE 10.4 mph - N/A   Clear
8:15 PM 73.4 °F 73.4 °F 100% 30.06 in 10.0 mi ESE 9.2 mph - N/A   Clear
8:35 PM 71.6 °F 71.6 °F 100% 30.06 in 10.0 mi ESE 10.4 mph - N/A   Clear
8:55 PM 71.6 °F 71.6 °F 100% 30.06 in 10.0 mi ESE 11.5 mph - N/A   Clear
9:15 PM 71.6 °F 71.6 °F 100% 30.07 in 10.0 mi SE 11.5 mph - N/A   Partly Cloudy
9:35 PM 69.8 °F 69.8 °F 100% 30.07 in 10.0 mi SE 11.5 mph - N/A   Mostly Cloudy
9:55 PM 69.8 °F 69.8 °F 100% 30.08 in 10.0 mi SE 11.5 mph - N/A   Mostly Cloudy
10:15 PM 69.8 °F 69.8 °F 100% 30.08 in 10.0 mi SE 12.7 mph 19.6 mph N/A   Overcast
10:35 PM 69.8 °F 69.8 °F 100% 30.09 in 10.0 mi SE 11.5 mph - N/A   Overcast
10:55 PM 68.0 °F 68.0 °F 100% 30.09 in 10.0 mi SE 9.2 mph - N/A   Overcast
11:15 PM 68.0 °F 68.0 °F 100% 30.09 in 10.0 mi SE 10.4 mph - N/A   Overcast
11:35 PM 68.0 °F 68.0 °F 100% 30.09 in 10.0 mi SE 10.4 mph - N/A   Overcast
11:55 PM 68.0 °F 68.0 °F 100% 30.09 in 10.0 mi SE 10.4 mph - N/A   Mostly Cloudy